Welcome to the New NWS' Forecast!
Most changes are behind the scenes, but click here for differences you might notice.

Regional Weather Roundup (RWR)

Issued by Gray - Portland, ME (GYX)

                            
000
ASUS41 KGYX 230705
RWRGYX
WEATHER ROUNDUP FOR MAINE AND NEW HAMPSHIRE
NATIONAL WEATHER SERVICE GRAY ME
300 AM EDT SUN SEP 23 2018

MEZ002-005-006-010-012-015-018-020-021-024-026-027-029-230800-
MAINE
  
CITY           SKY/WX    TMP DP  RH WIND       PRES   REMARKS
PORTLAND       FAIR      46  43  89 NW3       30.23R                  
SANFORD        FAIR      39  39 100 CALM      30.23S                  
BAR HARBOR     FAIR      40  39  97 CALM      30.23R                  
WISCASSET      FAIR      41  40  96 E3        30.24R                  
ROCKLAND       FAIR      41  40  96 CALM      30.22R                  
FRYEBURG       FOG       35  35 100 CALM      30.23F VSB 1/4          
LEWISTONAUBURN FAIR      39  38  96 CALM      30.23R                  
AUGUSTA        FAIR      43  40  89 CALM      30.22S                  
WATERVILLE     FAIR      40  39  97 CALM      30.20R                  
BANGOR         FAIR      39  38  96 CALM      30.22S                  
GREENVILLE       N/A     42  36  79 SW3       30.17F                  
MILLINOCKET    FAIR      40  36  86 CALM      30.20F                  
HOULTON        FAIR      30  30 100 CALM      30.17S                  
PRESQUE ISLE   FAIR      34  32  92 CALM      30.17S                  
FRENCHVILLE    FAIR      39  32  76 S6        30.12F                  
CARIBOU        FAIR      39  33  79 SW5       30.15S                  
$$

NHZ002-005-008-009-011-012-014-230800-
NEW HAMPSHIRE
  
CITY           SKY/WX    TMP DP  RH WIND       PRES   REMARKS
PORTSMOUTH     MOCLDY    47  45  94 W3        30.21S                  
ROCHESTER      FAIR      44  44 100 NW6       30.22S                  
NASHUA         FAIR      45  45 100 NW5       30.24S                  
MANCHESTER     FAIR      49  43  80 N3        30.22R                  
CONCORD        FAIR      41  39  93 CALM      30.23S                  
LACONIA        FAIR      43  41  93 CALM      30.23S                  
PLYMOUTH       FAIR      37  36  97 CALM      30.24S                  
BERLIN         FOG       34  34 100 CALM      30.25R VSB 1/4          
WHITEFIELD     FAIR      32  31  96 CALM      30.25S FOG              
JAFFREY        FAIR      41  41 100 CALM      30.24R                  
KEENE          FOG      N/A N/A N/A CALM      30.25S VSB 1/2          
LEBANON        CLOUDY    43  40  89 NE3       30.24F FOG              
MT WASHINGTON  PTCLDY    37   0  20 W18         N/A                   
$$

VTZ005-007-008-230800-
VERMONT
  
CITY           SKY/WX    TMP DP  RH WIND       PRES   REMARKS
ST JOHNSBURY     N/A     39  39 100 MISG      30.24S                  
MONTPELIER     FOG       38  38 100 CALM      30.27F VSB 1/4          
BURLINGTON     FAIR      42  39  89 CALM      30.25S                  
$$

MAZ007-012-024-CTZ003-RIZ002-NYZ038-NYZ072-230800-
SOUTHERN NEW ENGLAND AND NY
  
CITY           SKY/WX    TMP DP  RH WIND       PRES   REMARKS
BOSTON         MOCLDY    55  43  63 NW6       30.22S                  
WORCESTER      FAIR      47  40  76 NW3       30.23R                  
NANTUCKET      FAIR      56  49  77 NE5       30.19F                  
PROVIDENCE     FAIR      54  44  69 NW3       30.23S                  
HARTFORD       MOCLDY    51  49  92 N3        30.23S                  
ALBANY         CLOUDY    51  44  77 NW3       30.24F                  
NEW YORK CITY  MOCLDY    63  51  65 N6        30.19F                  
$$

ANZ081-ANZ082-ANZ150-NHZ014-MEZ023>029-230800-
COASTAL MARINE OBSERVATIONS
  
STATION/POSITION TIME  TEMP    WIND        PRES    WAVE
                       AIR SEA DIR/SP/G            HT/PER
                 (UTC) (F)     (DEG/KT/KT) (MB)    (FT/S)
MOUNT DESERT ROC 0700   54     320/ 11/ 12 1023.0R
MATINICUS ROCK   0600   55      10/ 11/ 12 1022.5F
ISLE OF SHOALS   0600   58      20/  6/  7 1022.5F
JEFFREYS LEDGE   0636      63                N/A     3/11
$$

.............KEY..............
   WCI - WIND CHILL
   TC  - TEMPERATURE IN CELSIUS
   VSB - VISIBILITY IN MILES
   HX  - HEAT INDEX
   FAIR- INDICATES FEW OR NO CLOUDS BELOW 12,000 FT, WITH NO 
         SIGNIFICANT WEATHER AND/OR OBSTRUCTIONS TO VISIBILITY.